| time (UTC) | temp C | wind direction | speed KPH | gust KPH | rain 1hr cm | rain 24hr cm | rain mn cm | humidity % | barometer mb |
| 20260904161528 | 13 | 225 | 0.0 | 0.0 | 0.00 | 0.00 | 0.00 | 83 | 1016.4 |
| 20260904160105 | 12 | 225 | 0.0 | 0.0 | 0.00 | 0.00 | 0.00 | 87 | 1016.4 |
| 20260904154530 | 11 | 225 | 0.0 | 0.0 | 0.00 | 0.00 | 0.00 | 88 | 1016.4 |
| 20260904153107 | 11 | 225 | 0.0 | 1.6 | 0.00 | 0.00 | 0.00 | 89 | 1016.3 |
| 20260904151533 | 11 | 225 | 0.0 | 0.0 | 0.00 | 0.00 | 0.00 | 90 | 1016.2 |
| 20260904143034 | 10 | 225 | 0.0 | 0.0 | 0.00 | 0.00 | 0.00 | 91 | 1015.8 |
| 20260904141528 | 10 | 225 | 0.0 | 3.2 | 0.00 | 0.00 | 0.00 | 91 | 1015.7 |
| 20260904134530 | 8 | 227 | 0.0 | 3.2 | 0.00 | 0.00 | 0.00 | 92 | 1015.4 |
| 20260904133030 | 8 | 247 | 0.0 | 3.2 | 0.00 | 0.00 | 0.00 | 91 | 1015.2 |
| 20260904131610 | 8 | 247 | 0.0 | 0.0 | 0.00 | 0.00 | 0.00 | 90 | 1015.0 |
| 20260904130106 | 9 | 247 | 0.0 | 0.0 | 0.00 | 0.00 | 0.00 | 90 | 1014.9 |
| 20260904124606 | 10 | 247 | 0.0 | 0.0 | 0.00 | 0.00 | 0.00 | 89 | 1015.0 |
| 20260904123030 | 10 | 247 | 0.0 | 1.6 | 0.00 | 0.00 | 0.00 | 89 | 1014.9 |
| 20260904121528 | 10 | 247 | 0.0 | 1.6 | 0.00 | 0.00 | 0.00 | 88 | 1014.9 |
| 20260904114531 | 10 | 247 | 0.0 | 1.6 | 0.00 | 0.00 | 0.00 | 88 | 1014.7 |
| 20260904113030 | 10 | 247 | 0.0 | 0.0 | 0.00 | 0.00 | 0.00 | 87 | 1014.5 |
| 20260904111530 | 10 | 247 | 0.0 | 3.2 | 0.00 | 0.00 | 0.00 | 87 | 1014.5 |
| 20260904110028 | 10 | 247 | 0.0 | 1.6 | 0.00 | 0.00 | 0.00 | 87 | 1014.3 |
| 20260904104530 | 10 | 257 | 0.0 | 4.8 | 0.00 | 0.00 | 0.00 | 86 | 1014.2 |
| 20260904103031 | 10 | 283 | 1.6 | 4.8 | 0.00 | 0.00 | 0.00 | 86 | 1014.1 |
| 20260904101608 | 9 | 269 | 1.6 | 4.8 | 0.00 | 0.00 | 0.00 | 87 | 1013.9 |
| 20260904100029 | 9 | 226 | 3.2 | 4.8 | 0.00 | 0.00 | 0.00 | 88 | 1013.9 |
| 20260904094531 | 9 | 224 | 3.2 | 6.4 | 0.00 | 0.00 | 0.00 | 88 | 1013.9 |
| 20260904093029 | 8 | 225 | 1.6 | 4.8 | 0.00 | 0.00 | 0.00 | 88 | 1013.8 |
| 20260904091608 | 9 | 228 | 1.6 | 3.2 | 0.00 | 0.00 | 0.00 | 87 | 1013.7 |
| 20260904090030 | 9 | 226 | 1.6 | 4.8 | 0.00 | 0.00 | 0.00 | 86 | 1013.8 |
| 20260904083030 | 9 | 232 | 1.6 | 4.8 | 0.00 | 0.00 | 0.00 | 86 | 1013.6 |
| 20260904081530 | 9 | 231 | 3.2 | 6.4 | 0.00 | 0.00 | 0.00 | 86 | 1013.6 |
| 20260904080032 | 9 | 236 | 1.6 | 6.4 | 0.00 | 0.00 | 0.00 | 86 | 1013.7 |
| 20260904074606 | 9 | 265 | 1.6 | 3.2 | 0.00 | 0.00 | 0.00 | 86 | 1013.5 |
| 20260904073030 | 9 | 242 | 1.6 | 4.8 | 0.00 | 0.00 | 0.00 | 85 | 1013.5 |
| 20260904071531 | 9 | 284 | 1.6 | 4.8 | 0.00 | 0.00 | 0.00 | 86 | 1013.5 |
| 20260904070029 | 9 | 277 | 1.6 | 6.4 | 0.00 | 0.00 | 0.00 | 86 | 1013.4 |
| 20260904063031 | -17 | 0 | 0.0 | 0.0 | 0.00 | 0.00 | 0.00 | 100 | |
| 20260904060030 | 11 | 292 | 3.2 | 3.2 | 0.00 | 0.00 | 0.00 | 79 | 1013.2 |
| 20260904054532 | 11 | 292 | 1.6 | 4.8 | 0.00 | 0.00 | 0.00 | 79 | 1013.2 |
| 20260904053031 | 11 | 317 | 1.6 | 3.2 | 0.00 | 0.00 | 0.00 | 79 | 1013.3 |
| 20260904051532 | -17 | 0 | 0.0 | 0.0 | 0.00 | 0.00 | 0.00 | 100 | |
| 20260904050029 | -17 | 0 | 0.0 | 0.0 | 0.00 | 0.00 | 0.00 | 100 | |
| 20260904044529 | -17 | 0 | 0.0 | 0.0 | 0.00 | 0.00 | 0.00 | 100 | |
| 20260904043032 | -17 | 0 | 0.0 | 0.0 | 0.00 | 0.00 | 0.00 | 100 | |
| 20260904040029 | 11 | 294 | 1.6 | 4.8 | 0.00 | 0.03 | 0.00 | 82 | 1013.3 |
| 20260904034533 | 11 | 292 | 1.6 | 6.4 | 0.00 | 0.08 | 0.00 | 83 | 1013.2 |
| 20260904033029 | 12 | 312 | 1.6 | 1.6 | 0.00 | 0.15 | 0.00 | 84 | 1012.9 |
| 20260904031529 | -17 | 0 | 0.0 | 0.0 | 0.00 | 0.41 | 0.00 | 100 | |
| 20260904030145 | 12 | 1 | 1.6 | 4.8 | 0.00 | 0.81 | 0.00 | 80 | 1012.6 |
| 20260904024531 | -17 | 0 | 0.0 | 0.0 | 0.00 | 0.81 | 0.00 | 100 | |
| 20260904021529 | 12 | 357 | 1.6 | 6.4 | 0.00 | 0.81 | 0.00 | 78 | 1012.6 |
| 20260904014539 | 13 | 1 | 1.6 | 6.4 | 0.00 | 0.81 | 0.00 | 77 | 1012.3 |
| 20260904013031 | 13 | 36 | 1.6 | 8.0 | 0.00 | 0.81 | 0.00 | 75 | 1012.0 |
| 20260904004531 | 14 | 28 | 3.2 | 12.9 | 0.00 | 0.81 | 0.00 | 70 | 1012.1 |
| 20260904003031 | 15 | 22 | 3.2 | 11.3 | 0.00 | 0.81 | 0.00 | 67 | 1012.0 |
| 20260904001529 | 16 | 37 | 3.2 | 16.1 | 0.00 | 0.81 | 0.00 | 63 | 1011.8 |
| 20260904000032 | 17 | 34 | 4.8 | 16.1 | 0.00 | 0.81 | 0.00 | 57 | 1011.7 |
| 20260903233030 | 19 | 49 | 1.6 | 9.7 | 0.00 | 0.81 | 0.00 | 48 | 1011.6 |
| 20260903231531 | 20 | 52 | 0.0 | 4.8 | 0.00 | 0.81 | 0.00 | 47 | 1011.7 |
| 20260903230108 | 20 | 38 | 0.0 | 1.6 | 0.00 | 0.81 | 0.00 | 46 | 1011.8 |
| 20260903224646 | 20 | 15 | 0.0 | 1.6 | 0.00 | 0.81 | 0.00 | 44 | 1011.9 |
| 20260903223030 | -17 | 0 | 0.0 | 0.0 | 0.00 | 0.81 | 0.00 | 100 | |
| 20260903221529 | -17 | 0 | 0.0 | 0.0 | 0.00 | 0.86 | 0.00 | 100 | |
| 20260903220107 | 20 | 346 | 0.0 | 0.0 | 0.00 | 0.86 | 0.00 | 47 | 1012.1 |
| 20260903214530 | -17 | 0 | 0.0 | 0.0 | 0.00 | 0.86 | 0.00 | 100 | |
| 20260903211532 | 20 | 32 | 0.0 | 6.4 | 0.00 | 0.86 | 0.00 | 46 | 1012.0 |
| 20260903210030 | 20 | 294 | 4.8 | 8.0 | 0.00 | 0.86 | 0.00 | 42 | 1012.2 |
| 20260903204530 | 20 | 237 | 6.4 | 12.9 | 0.00 | 0.86 | 0.00 | 42 | 1012.3 |
| 20260903203031 | 21 | 288 | 4.8 | 12.9 | 0.00 | 0.86 | 0.00 | 42 | 1012.4 |
| 20260903201529 | 21 | 65 | 0.0 | 1.6 | 0.00 | 0.86 | 0.00 | 50 | 1012.8 |
| 20260903193030 | 16 | 45 | 0.0 | 0.0 | 0.00 | 0.86 | 0.00 | 72 | 1014.0 |
| 20260903191531 | 16 | 45 | 0.0 | 0.0 | 0.00 | 0.86 | 0.00 | 73 | 1014.1 |
| 20260903190031 | 16 | 45 | 0.0 | 0.0 | 0.00 | 0.86 | 0.00 | 73 | 1014.1 |
| 20260903184607 | 15 | 45 | 0.0 | 0.0 | 0.00 | 0.86 | 0.00 | 75 | 1014.2 |
| 20260903183029 | 15 | 51 | 0.0 | 1.6 | 0.00 | 0.86 | 0.00 | 76 | 1014.2 |
| 20260903181534 | 15 | 57 | 0.0 | 0.0 | 0.00 | 0.86 | 0.00 | 78 | 1014.2 |
| 20260903180032 | 14 | 22 | 0.0 | 1.6 | 0.00 | 0.86 | 0.00 | 80 | 1014.1 |
| 20260903174528 | 13 | 14 | 0.0 | 1.6 | 0.00 | 0.86 | 0.00 | 80 | 1014.1 |
| 20260903173031 | 13 | 35 | 0.0 | 3.2 | 0.00 | 0.86 | 0.00 | 83 | 1014.1 |
| 20260903171532 | 12 | 34 | 0.0 | 3.2 | 0.00 | 0.86 | 0.00 | 83 | 1014.1 |
| 20260903170030 | 12 | 13 | 0.0 | 3.2 | 0.00 | 0.86 | 0.00 | 83 | 1014.3 |
| 20260903164529 | 12 | 23 | 0.0 | 4.8 | 0.00 | 0.86 | 0.00 | 83 | 1014.3 |
| 20260903163032 | 12 | 21 | 0.0 | 4.8 | 0.00 | 0.86 | 0.00 | 82 | 1014.2 |